DW6047 Weather Reports


Display with metric or nautical units.
time (UTC)temp
F
wind
direction
speed
MPH
gust
MPH
rain 1hr
in
rain 24hr
in
rain mn
in
humidity
%
barometer
mb
20181021194205 45 89 1.0 3.0 0.00 0.10 0.10 50 1017.6
20181021193305 45 94 0.0 6.0 0.00 0.10 0.10 50 1017.5
20181021193002 45 43 0.0 6.0 0.00 0.10 0.02 49 1018.5
20181021192405 45 92 1.0 5.0 0.00 0.10 0.10 51 1017.3
20181021191505 45 108 1.0 6.0 0.00 0.10 0.10 52 1017.3
20181021190605 45 62 2.0 5.0 0.00 0.10 0.10 54 1017.3
20181021190010 44 74 0.0 6.0 0.00 0.10 0.02 51 1018.1
20181021185705 45 124 1.0 6.0 0.00 0.10 0.10 51 1017.4
20181021184805 45 127 1.0 4.0 0.00 0.10 0.10 51 1017.1
20181021184704 44 75 2.0 4.0 0.00 0.10 0.02 52 1018.0
20181021183905 45 133 1.0 6.0 0.00 0.10 0.10 53 1017.2
20181021183005 44 27 1.0 6.0 0.00 0.10 0.10 54 1017.3
20181021182105 45 50 1.0 6.0 0.00 0.10 0.10 51 1017.3
20181021181205 45 204 1.0 9.0 0.00 0.10 0.10 52 1017.1
20181021180305 44 86 1.0 6.0 0.00 0.10 0.10 54 1017.0
20181021180001 44 92 2.0 6.0 0.00 0.10 0.02 57 1017.9
20181021175405 44 42 1.0 6.0 0.00 0.10 0.10 59 1017.0
20181021174505 44 48 1.0 5.0 0.00 0.10 0.10 59 1016.9
20181021173605 44 340 0.0 5.0 0.00 0.10 0.10 59 1017.0
20181021172705 43 353 1.0 4.0 0.00 0.10 0.10 61 1017.0
20181021171805 43 55 1.0 6.0 0.00 0.10 0.10 63 1016.9
20181021170905 44 37 1.0 5.0 0.00 0.10 0.10 62 1016.8
20181021170230 44 30 1.0 5.0 0.00 0.10 0.10 61 1017.0
20181021170215 43 44 1.0 5.0 0.00 0.10 0.02 61 1017.8
20181021164205 44 77 1.0 5.0 0.00 0.10 0.10 65 1017.2
20181021163305 43 172 1.0 6.0 0.00 0.10 0.10 64 1017.1
20181021163001 43 332 0.0 7.0 0.00 0.10 0.02 64 1017.8
20181021162405 43 74 0.0 6.0 0.00 0.10 0.10 65 1016.9
20181021161505 43 44 1.0 6.0 0.00 0.10 0.10 64 1016.8
20181021160605 43 34 2.0 6.0 0.00 0.10 0.10 66 1016.8
20181021155705 43 355 2.0 5.0 0.00 0.10 0.10 67 1016.8
20181021154805 42 27 1.0 7.0 0.00 0.10 0.10 68 1016.8
20181021153905 42 77 1.0 6.0 0.00 0.10 0.10 70 1017.0
20181021153005 42 38 2.0 7.0 0.00 0.10 0.10 68 1016.9
20181021152105 42 47 1.0 7.0 0.00 0.10 0.10 68 1016.7
20181021151504 41 46 1.0 6.0 0.00 0.10 0.02 68 1017.5
20181021151205 42 85 2.0 6.0 0.00 0.10 0.10 67 1016.7
20181021150305 42 53 2.0 7.0 0.00 0.10 0.10 69 1016.5
20181021145405 42 78 2.0 7.0 0.00 0.10 0.10 67 1016.6
20181021144505 42 98 1.0 7.0 0.00 0.10 0.10 68 1016.2
20181021144501 42 69 2.0 6.0 0.00 0.10 0.02 68 1017.1
20181021143605 42 98 1.0 7.0 0.00 0.10 0.10 70 1016.1
20181021142705 42 99 2.0 6.0 0.00 0.10 0.10 69 1016.1
20181021141805 42 92 1.0 9.0 0.00 0.10 0.10 70 1016.0
20181021141503 42 55 2.0 9.0 0.00 0.10 0.02 70 1016.8
20181021140905 42 116 1.0 6.0 0.00 0.10 0.10 71 1016.0
20181021140005 43 82 1.0 5.0 0.00 0.10 0.10 69 1015.7
20181021135105 42 127 0.0 5.0 0.00 0.10 0.10 72 1015.4
20181021134502 42 355 0.0 5.0 0.00 0.10 0.02 72 1016.1
20181021134206 42 44 1.0 5.0 0.00 0.10 0.10 71 1015.3
20181021133305 42 40 2.0 6.0 0.00 0.10 0.10 73 1014.9
20181021132405 41 31 1.0 6.0 0.00 0.10 0.10 75 1014.9
20181021131505 41 59 1.0 5.0 0.00 0.10 0.10 76 1014.9
20181021130605 41 89 2.0 9.0 0.00 0.10 0.10 80 1014.6
20181021130124 41 88 2.0 5.0 0.00 0.10 0.02 82 1015.3
20181021125705 41 108 1.0 6.0 0.00 0.10 0.10 85 1014.5
20181021124805 41 91 0.0 6.0 0.00 0.10 0.10 88 1014.2
20181021123906 41 47 0.0 2.0 0.00 0.10 0.10 92 1014.0
20181021123058 40 33 0.0 4.0 0.00 0.10 0.02 93 1014.7
20181021123005 40 49 0.0 3.0 0.00 0.10 0.10 93 1013.9
20181021122105 40 53 0.0 5.0 0.00 0.10 0.10 93 1013.7
20181021121205 40 58 0.0 2.0 0.01 0.10 0.10 92 1013.6
20181021120305 40 40 1.0 4.0 0.02 0.10 0.10 92 1013.3
20181021115405 40 30 1.0 4.0 0.02 0.10 0.10 92 1013.0
20181021114505 41 12 1.0 5.0 0.02 0.10 0.10 92 1012.6
20181021114501 40 17 1.0 5.0 0.02 0.10 0.02 92 1013.3
20181021113605 41 5 1.0 5.0 0.02 0.10 0.10 92 1012.5
20181021113002 41 5 0.0 5.0 0.02 0.10 0.02 92 1012.9
20181021112705 42 13 1.0 5.0 0.02 0.10 0.10 91 1012.0
20181021111805 42 358 1.0 6.0 0.01 0.09 0.09 90 1011.7
20181021110905 44 25 0.0 5.0 0.00 0.08 0.08 88 1011.3
20181021110005 44 118 0.0 3.0 0.00 0.08 0.08 84 1011.0
20181021110001 44 119 0.0 4.0 0.00 0.08 0.00 84 1011.7
20181021105105 44 0 0.0 0.0 0.00 0.08 0.08 84 1010.5
20181021102417 44 0 0.0 0.0 0.08 0.08 0.08 85 1009.7
20181021101519 44 88 0.0 0.0 0.00 0.08 0.00 84 1010.1
20181021101517 44 0 0.0 0.0 0.08 0.08 0.08 84 1009.5
20181021100617 44 90 0.0 2.0 0.08 0.08 0.08 84 1009.3
20181021095717 44 110 0.0 2.0 0.08 0.08 0.08 86 1009.1
20181021094817 44 118 0.0 2.0 0.08 0.08 0.08 86 1008.9
20181021093410 52 3 0.0 5.0 0.00 0.00 0.00 77 1003.9
20181021093115 44 191 0.0 4.0 0.00 0.08 0.00 86 1009.2
20181021092510 52 3 0.0 5.0 0.00 0.00 0.00 77 1003.9
20181021091610 52 3 0.0 5.0 0.00 0.00 0.00 77 1003.9
20181021091556 43 148 0.0 5.0 0.00 0.08 0.00 87 1008.7
20181021090711 52 3 0.0 5.0 0.00 0.00 0.00 77 1003.9
20181021090109 43 115 0.0 0.0 0.00 0.08 0.00 89 1008.3
20181021085810 52 3 0.0 5.0 0.00 0.00 0.00 77 1003.9
20181021084910 52 3 0.0 5.0 0.00 0.00 0.00 77 1003.9
20181021084556 43 142 0.0 4.0 0.00 0.09 0.00 89 1007.8
20181021084010 52 3 0.0 5.0 0.00 0.00 0.00 77 1003.9
20181021083110 52 3 0.0 5.0 0.00 0.00 0.00 77 1003.9
20181021083040 43 140 0.0 0.0 0.00 0.09 0.00 89 1007.3
20181021082210 52 3 0.0 5.0 0.00 0.00 0.00 77 1003.9
20181021081607 43 140 0.0 0.0 0.00 0.09 0.00 90 1007.0
20181021081310 52 3 0.0 5.0 0.00 0.00 0.00 77 1003.9
20181021080410 52 3 0.0 5.0 0.00 0.01 0.00 77 1003.9
20181021080024 44 115 0.0 0.0 0.00 0.09 0.00 90 1006.8
20181021075510 52 3 0.0 5.0 0.00 0.01 0.00 77 1003.9
20181021074610 52 3 0.0 5.0 0.00 0.01 0.00 77 1003.9
20181021074525 44 76 0.0 0.0 0.00 0.09 0.00 90 1006.8
20181021073710 52 3 0.0 5.0 0.00 0.01 0.00 77 1003.9
20181021073030 44 75 0.0 2.0 0.00 0.09 0.00 90 1006.5
20181021072810 52 3 0.0 5.0 0.00 0.01 0.00 77 1003.9
20181021071910 52 3 0.0 5.0 0.00 0.01 0.00 77 1003.9
20181021071519 44 75 0.0 0.0 0.00 0.09 0.00 90 1006.3
20181021071010 52 3 0.0 5.0 0.00 0.01 0.00 77 1003.9
20181021070110 52 3 0.0 5.0 0.00 0.01 0.00 77 1003.9
20181021070020 44 76 0.0 0.0 0.00 0.09 0.00 91 1006.2
20181021065210 52 3 0.0 5.0 0.00 0.01 0.00 77 1003.9
20181021064610 45 127 0.0 0.0 0.00 0.10 0.00 91 1005.7
20181021064310 52 3 0.0 5.0 0.00 0.01 0.00 77 1003.9
20181021063410 52 3 0.0 5.0 0.00 0.01 0.00 77 1003.9
20181021063021 45 158 0.0 2.0 0.00 0.10 0.00 91 1005.7
20181021062510 52 3 0.0 5.0 0.00 0.01 0.00 77 1003.9
20181021061610 52 3 0.0 5.0 0.00 0.01 0.00 77 1003.9
20181021061513 45 188 0.0 0.0 0.00 0.10 0.00 92 1005.7
20181021060710 52 3 0.0 5.0 0.00 0.01 0.00 77 1003.9
20181021060012 45 188 0.0 0.0 0.00 0.10 0.00 92 1005.7
20181021055810 52 3 0.0 5.0 0.00 0.02 0.00 77 1003.9
20181021054910 52 3 0.0 5.0 0.00 0.02 0.00 77 1003.9
20181021054525 45 205 0.0 2.0 0.00 0.11 0.00 92 1005.8
20181021054010 52 3 0.0 5.0 0.00 0.03 0.00 77 1003.9
20181021053110 52 3 0.0 5.0 0.00 0.03 0.00 77 1003.9
20181021053010 45 205 0.0 0.0 0.00 0.11 0.00 93 1005.6
20181021052210 52 3 0.0 5.0 0.00 0.03 0.00 77 1003.9
20181021051537 45 205 0.0 0.0 0.00 0.11 0.00 93 1005.3
20181021051310 52 3 0.0 5.0 0.00 0.03 0.00 77 1003.9
20181021050410 52 3 0.0 5.0 0.00 0.03 0.00 77 1003.9
20181021050009 45 205 0.0 5.0 0.00 0.11 0.00 93 1005.5
20181021045510 52 3 0.0 5.0 0.00 0.03 0.00 77 1003.9
20181021044610 52 3 0.0 5.0 0.00 0.03 0.00 77 1003.9
20181021044508 45 195 0.0 4.0 0.00 0.11 0.00 93 1005.5
20181021043710 52 3 0.0 5.0 0.00 0.03 0.00 77 1003.9
20181021043013 44 182 0.0 0.0 0.00 0.11 0.00 94 1005.5
20181021042810 52 3 0.0 5.0 0.00 0.03 0.00 77 1003.9
20181021041911 52 3 0.0 5.0 0.00 0.03 0.00 77 1003.9
20181021041506 44 182 0.0 0.0 0.00 0.11 0.00 93 1005.6
20181021041010 52 3 0.0 5.0 0.00 0.03 0.00 77 1003.9
20181021040110 52 3 0.0 5.0 0.00 0.03 0.00 77 1003.9
20181021040006 45 182 0.0 0.0 0.01 0.11 0.11 93 1005.2
20181021035210 52 3 0.0 5.0 0.00 0.03 0.03 77 1003.9
20181021034502 45 182 0.0 0.0 0.02 0.11 0.11 93 1005.4
20181021034310 52 3 0.0 5.0 0.00 0.03 0.03 77 1003.9
20181021033410 52 3 0.0 5.0 0.00 0.03 0.03 77 1003.9
20181021033135 45 181 0.0 0.0 0.05 0.11 0.11 92 1005.3
20181021032510 52 3 0.0 5.0 0.00 0.03 0.03 77 1003.9
20181021031758 45 181 0.0 4.0 0.08 0.11 0.11 91 1005.5
20181021031610 52 3 0.0 5.0 0.00 0.03 0.03 77 1003.9
20181021030710 52 3 0.0 5.0 0.00 0.03 0.03 77 1003.9
20181021030117 46 179 0.0 6.0 0.07 0.10 0.10 91 1006.2
20181021025810 52 3 0.0 5.0 0.00 0.03 0.03 77 1003.9
20181021024910 52 3 0.0 5.0 0.00 0.03 0.03 77 1003.9
20181021024754 47 182 0.0 5.0 0.06 0.09 0.09 89 1006.0
20181021024010 52 3 0.0 5.0 0.00 0.03 0.03 77 1003.9
20181021023110 52 3 0.0 5.0 0.00 0.03 0.03 77 1003.9
20181021023104 49 192 2.0 9.0 0.03 0.06 0.06 85 1006.0
20181021022210 52 3 0.0 5.0 0.00 0.03 0.03 77 1003.9
20181021021551 50 355 0.0 0.0 0.00 0.03 0.03 80 1005.4
20181021021310 52 3 0.0 5.0 0.00 0.03 0.03 77 1003.9
20181021020410 52 3 0.0 5.0 0.00 0.03 0.03 77 1003.9
20181021015510 52 3 0.0 5.0 0.00 0.03 0.03 77 1003.9
20181021014634 51 346 0.0 5.0 0.00 0.03 0.03 77 1004.3
20181021014610 52 3 0.0 5.0 0.00 0.03 0.03 77 1003.9
20181021013710 52 3 0.0 5.0 0.00 0.03 0.03 77 1003.9
20181021011910 53 0 0.0 0.0 0.00 0.03 0.03 75 1003.6
20181021011011 54 0 0.0 0.0 0.00 0.03 0.03 75 1003.6
20181021010110 54 0 0.0 0.0 0.00 0.03 0.03 75 1003.5
20181021010003 54 209 0.0 0.0 0.00 0.03 0.03 74 1004.0
20181021005210 54 0 0.0 0.0 0.00 0.03 0.03 70 1003.4
20181021004310 54 0 0.0 0.0 0.00 0.03 0.03 70 1003.5
20181021003410 54 210 1.0 4.0 0.00 0.03 0.03 70 1003.6
20181021003005 54 209 0.0 4.0 0.00 0.03 0.03 70 1004.0
20181021002510 54 209 1.0 4.0 0.00 0.03 0.03 69 1003.3
20181021001610 54 209 1.0 3.0 0.00 0.03 0.03 69 1003.3
20181021000711 54 209 1.0 4.0 0.00 0.03 0.03 69 1003.3
20181021000004 54 209 0.0 2.0 0.00 0.03 0.03 69 1003.8
20181020235811 54 211 2.0 3.0 0.00 0.03 0.03 69 1003.3
20181020234910 55 212 1.0 5.0 0.00 0.03 0.03 68 1003.3
20181020234010 55 212 0.0 3.0 0.00 0.03 0.03 67 1003.4
20181020233110 55 0 0.0 0.0 0.00 0.03 0.03 66 1003.4
20181020233003 55 211 0.0 0.0 0.00 0.03 0.03 66 1003.9
20181020232211 56 211 2.0 4.0 0.00 0.03 0.03 65 1003.3
20181020231310 56 211 2.0 5.0 0.00 0.03 0.03 64 1003.4
20181020230410 56 208 1.0 4.0 0.00 0.03 0.03 64 1003.3
20181020230010 55 207 1.0 4.0 0.00 0.03 0.03 64 1003.8
20181020225510 56 206 0.0 4.0 0.00 0.03 0.03 64 1003.2
20181020224610 56 206 1.0 3.0 0.00 0.03 0.03 63 1003.2
20181020223710 56 206 0.0 4.0 0.00 0.03 0.03 63 1003.2
20181020223008 56 205 0.0 2.0 0.00 0.03 0.03 62 1003.8
20181020222810 56 208 1.0 2.0 0.00 0.03 0.03 62 1003.2
20181020221910 57 207 1.0 4.0 0.00 0.03 0.03 61 1003.3
20181020221010 57 208 1.0 5.0 0.00 0.03 0.03 60 1003.2
20181020220110 58 220 0.0 2.0 0.00 0.03 0.03 61 1003.3
20181020220002 57 219 0.0 2.0 0.00 0.03 0.03 61 1003.7
20181020215211 58 218 1.0 5.0 0.00 0.03 0.03 60 1003.2
20181020214310 59 216 1.0 5.0 0.00 0.03 0.03 59 1003.3
20181020213410 59 203 2.0 7.0 0.00 0.03 0.03 59 1003.2
20181020213012 59 198 0.0 7.0 0.00 0.03 0.03 59 1003.7
20181020212510 59 198 1.0 7.0 0.00 0.03 0.03 59 1003.3
20181020211610 59 204 1.0 6.0 0.00 0.03 0.03 59 1003.3
20181020210710 59 194 0.0 4.0 0.00 0.03 0.03 62 1003.4
20181020210013 59 194 0.0 2.0 0.00 0.03 0.03 61 1003.9
20181020205810 60 195 0.0 2.0 0.00 0.03 0.03 59 1003.4
20181020204910 60 194 0.0 5.0 0.00 0.03 0.03 59 1003.5
20181020204010 60 193 1.0 5.0 0.00 0.03 0.03 59 1003.5
20181020203110 60 193 1.0 5.0 0.00 0.03 0.03 62 1003.5
20181020203003 59 188 1.0 6.0 0.00 0.03 0.03 62 1004.1
20181020202210 60 196 1.0 5.0 0.00 0.03 0.03 61 1003.7
20181020201310 61 181 2.0 9.0 0.00 0.03 0.03 59 1003.7
20181020200410 60 196 1.0 6.0 0.00 0.03 0.03 62 1003.9
20181020200003 59 186 0.0 5.0 0.00 0.03 0.03 63 1004.5
20181020195510 60 196 1.0 4.0 0.00 0.03 0.03 61 1004.1
20181020194610 60 200 2.0 7.0 0.00 0.03 0.03 62 1004.1